H1 CPF 2 NER 2024 7 1 9 183 01 glonass131 H2 1301901 9131 39155 2024 7 1 0 0 0 2024 7 4 23 45 0 900 1 1 0 0 0 1 H9 10 0 60492 0.00000 0 17884368.047 -8138068.220 16272765.983 10 0 60492 900.00000 0 19724652.154 -8386071.009 13824758.213 10 0 60492 1800.00000 0 21227326.642 -8726702.772 11108121.243 10 0 60492 2700.00000 0 22360477.874 -9108174.217 8175450.256 10 0 60492 3600.00000 0 23104835.385 -9474705.065 5083644.805 10 0 60492 4500.00000 0 23454450.649 -9769080.821 1892808.038 10 0 60492 5400.00000 0 23416831.569 -9935288.613 -1334925.597 10 0 60492 6300.00000 0 23012524.969 -9921119.106 -4536610.965 10 0 60492 7200.00000 0 22274163.000 -9680621.992 -7649736.113 10 0 60492 8100.00000 0 21245012.630 -9176308.072 -10613463.363 10 0 60492 9000.00000 0 19977089.369 -8381001.374 -13369841.185 10 0 60492 9900.00000 0 18528915.387 -7279259.464 -15864960.688 10 0 60492 10800.00000 0 16963018.169 -5868298.796 -18050031.780 10 0 60492 11700.00000 0 15343277.194 -4158383.404 -19882355.817 10 0 60492 12600.00000 0 13732232.779 -2172658.706 -21326174.002 10 0 60492 13500.00000 0 12188472.669 53563.650 -22353373.754 10 0 60492 14400.00000 0 10764208.226 2474040.137 -22944038.670 10 0 60492 15300.00000 0 9503143.441 5033296.611 -23086831.342 10 0 60492 16200.00000 0 8438726.823 7668724.245 -22779202.177 10 0 60492 17100.00000 0 7592859.150 10312981.150 -22027421.190 10 0 60492 18000.00000 0 6975110.030 12896598.004 -20846433.613 10 0 60492 18900.00000 0 6582474.017 15350677.768 -19259543.815 10 0 60492 19800.00000 0 6399673.779 17609576.166 -17297935.524 10 0 60492 20700.00000 0 6399994.394 19613450.991 -15000039.544 10 0 60492 21600.00000 0 6546610.465 21310574.492 -12410763.054 10 0 60492 22500.00000 0 6794347.085 22659313.707 -9580597.074 10 0 60492 23400.00000 0 7091797.856 23629698.038 -6564620.821 10 0 60492 24300.00000 0 7383708.653 24204511.139 -3421423.359 10 0 60492 25200.00000 0 7613525.364 24379864.354 -211964.103 10 0 60492 26100.00000 0 7725997.673 24165230.687 3001605.430 10 0 60492 27000.00000 0 7669729.354 23582940.696 6157136.012 10 0 60492 27900.00000 0 7399568.466 22667163.749 9193668.825 10 0 60492 28800.00000 0 6878738.047 21462419.029 12052595.410 10 0 60492 29700.00000 0 6080619.117 20021679.488 14678768.565 10 0 60492 30600.00000 0 4990112.379 18404148.130 17021544.614 10 0 60492 31500.00000 0 3604522.465 16672798.753 19035738.897 10 0 60492 32400.00000 0 1933928.009 14891782.362 20682478.183 10 0 60492 33300.00000 0 1021.641 13123805.400 21929935.480 10 0 60492 34200.00000 0 -2159574.694 11427586.827 22753934.739 10 0 60492 35100.00000 0 -4502492.643 9855497.611 23138414.975 10 0 60492 36000.00000 0 -6973252.200 8451478.938 23075745.464 10 0 60492 36900.00000 0 -9510283.580 7249324.232 22566885.820 10 0 60492 37800.00000 0 -12047255.717 6271395.731 21621387.068 10 0 60492 38700.00000 0 -14515618.072 5527828.960 20257232.219 10 0 60492 39600.00000 0 -16847253.056 5016258.986 18500517.334 10 0 60492 40500.00000 0 -18977131.062 4722081.171 16384976.794 10 0 60492 41400.00000 0 -20845858.974 4619237.237 13951359.282 10 0 60492 42300.00000 0 -22402016.245 4671495.609 11246663.922 10 0 60492 43200.00000 0 -23604180.370 4834174.018 8323249.068 10 0 60492 44100.00000 0 -24422555.551 5056233.203 5237829.149 10 0 60492 45000.00000 0 -24840134.094 5282654.128 2050377.941 10 0 60492 45900.00000 0 -24853339.338 5456998.128 -1177040.812 10 0 60492 46800.00000 0 -24472120.528 5524040.635 -4381492.260 10 0 60492 47700.00000 0 -23719493.414 5432365.024 -7500413.811 10 0 60492 48600.00000 0 -22630544.463 5136804.073 -10472857.041 10 0 60492 49500.00000 0 -21250939.709 4600622.437 -13240701.635 10 0 60492 50400.00000 0 -19635001.079 3797344.300 -15749815.149 10 0 60492 51300.00000 0 -17843432.352 2712145.648 -17951133.637 10 0 60492 52200.00000 0 -15940792.022 1342749.416 -19801639.810 10 0 60492 53100.00000 0 -13992821.540 -300216.491 -21265217.870 10 0 60492 54000.00000 0 -12063743.451 -2193414.888 -22313367.112 10 0 60492 54900.00000 0 -10213644.941 -4301541.159 -22925759.750 10 0 60492 55800.00000 0 -8496058.190 -6578579.978 -23090632.045 10 0 60492 56700.00000 0 -6955839.868 -8969523.467 -22805001.713 10 0 60492 57600.00000 0 -5627438.620 -11412477.618 -22074708.390 10 0 60492 58500.00000 0 -4533622.196 -13841067.477 -20914277.809 10 0 60492 59400.00000 0 -3684715.685 -16187039.179 -19346614.011 10 0 60492 60300.00000 0 -3078380.152 -18382949.100 -17402527.411 10 0 60492 61200.00000 0 -2699937.775 -20364827.206 -15120109.769 10 0 60492 62100.00000 0 -2523226.334 -22074703.421 -12543969.993 10 0 60492 63000.00000 0 -2511943.670 -23462892.228 -9724347.250 10 0 60492 63900.00000 0 -2621422.356 -24489941.437 -6716120.000 10 0 60492 64800.00000 0 -2800757.212 -25128165.691 -3577731.266 10 0 60492 65700.00000 0 -2995194.065 -25362703.002 -370051.656 10 0 60492 66600.00000 0 -3148677.932 -25192052.787 2844797.509 10 0 60492 67500.00000 0 -3206452.868 -24628075.547 6004638.345 10 0 60492 68400.00000 0 -3117604.326 -23695456.544 9048425.396 10 0 60492 69300.00000 0 -2837437.892 -22430657.762 11917407.521 10 0 60492 70200.00000 0 -2329595.636 -20880403.158 14556241.734 10 0 60492 71100.00000 0 -1567822.474 -19099760.777 16914039.343 10 0 60492 72000.00000 0 -537309.613 -17149901.372 18945326.146 10 0 60492 72900.00000 0 764440.513 -15095625.673 20610900.305 10 0 60492 73800.00000 0 2327263.962 -13002761.462 21878573.289 10 0 60492 74700.00000 0 4128515.035 -10935536.443 22723781.253 10 0 60492 75600.00000 0 6133770.168 -8954033.736 23130056.309 10 0 60492 76500.00000 0 8298029.047 -7111833.378 23089349.207 10 0 60492 77400.00000 0 10567365.922 -5453935.889 22602197.152 10 0 60492 78300.00000 0 12880965.830 -4015052.828 21677732.746 10 0 60492 79200.00000 0 15173464.496 -2818334.757 20333532.402 10 0 60492 80100.00000 0 17377497.740 -1874589.682 18595305.156 10 0 60492 81000.00000 0 19426356.918 -1182025.339 16496425.411 10 0 60492 81900.00000 0 21256641.553 -726527.417 14077315.972 10 0 60492 82800.00000 0 22810799.298 -482463.772 11384690.723 10 0 60492 83700.00000 0 24039446.869 -413982.568 8470669.235 10 0 60492 84600.00000 0 24903373.606 -476751.272 5391778.623 10 0 60492 85500.00000 0 25375141.640 -620064.160 2207860.859 10 0 60493 0.00000 0 25440212.925 -789229.627 -1019093.337 10 0 60493 900.00000 0 25097552.922 -928135.817 -4226162.702 10 0 60493 1800.00000 0 24359682.910 -981884.262 -7350736.492 10 0 60493 2700.00000 0 23252176.646 -899378.025 -10331758.223 10 0 60493 3600.00000 0 21812620.832 -635751.558 -13110941.287 10 0 60493 4500.00000 0 20089082.743 -154536.256 -15633932.005 10 0 60493 5400.00000 0 18138149.588 570533.336 -17851394.646 10 0 60493 6300.00000 0 16022623.226 1554152.056 -19719995.069 10 0 60493 7200.00000 0 13808968.996 2798575.654 -21203262.021 10 0 60493 8100.00000 0 11564627.602 4293289.796 -22272307.976 10 0 60493 9000.00000 0 9355304.961 6015231.510 -22906394.802 10 0 60493 9900.00000 0 7242355.331 7929553.955 -23093333.200 10 0 60493 10800.00000 0 5280368.509 9990901.876 -22829708.650 10 0 60493 11700.00000 0 3515062.411 12145143.235 -22120930.506 10 0 60493 12600.00000 0 1981568.728 14331482.987 -20981104.710 10 0 60493 13500.00000 0 703181.867 16484869.040 -19432734.266 10 0 60493 14400.00000 0 -309378.832 18538588.371 -17506255.150 10 0 60493 15300.00000 0 -1058165.702 20426943.688 -15239418.516 10 0 60493 16200.00000 0 -1557653.518 22087898.231 -12676533.040 10 0 60493 17100.00000 0 -1833862.729 23465578.257 -9867583.692 10 0 60493 18000.00000 0 -1922995.585 24512529.331 -6867245.495 10 0 60493 18900.00000 0 -1869645.673 25191633.487 -3733812.480 10 0 60493 19800.00000 0 -1724658.804 25477608.967 -528063.293 10 0 60493 20700.00000 0 -1542737.093 25358032.068 2687914.210 10 0 60493 21600.00000 0 -1379888.140 24833840.697 5851916.779 10 0 60493 22500.00000 0 -1290826.862 23919300.861 8902815.549 10 0 60493 23400.00000 0 -1326438.829 22641439.324 11781719.781 10 0 60493 24300.00000 0 -1531410.730 21038967.493 14433093.583 10 0 60493 25200.00000 0 -1942126.231 19160741.976 16805805.863 10 0 60493 26100.00000 0 -2584914.190 17063825.818 18854095.214 10 0 60493 27000.00000 0 -3474721.624 14811230.127 20538433.216 10 0 60493 27900.00000 0 -4614266.444 12469428.327 21826271.478 10 0 60493 28800.00000 0 -5993705.566 10105744.115 22692659.673 10 0 60493 29700.00000 0 -7590833.263 7785719.051 23120723.904 10 0 60493 30600.00000 0 -9371803.323 5570566.455 23101996.842 10 0 60493 31500.00000 0 -11292347.498 3514814.955 22636593.223 10 0 60493 32400.00000 0 -13299442.555 1664237.623 21733226.606 10 0 60493 33300.00000 0 -15333359.913 54151.471 20409065.628 10 0 60493 34200.00000 0 -17330015.722 -1291842.400 18689430.538 10 0 60493 35100.00000 0 -19223526.358 -2362625.286 16607333.438 10 0 60493 36000.00000 0 -20948864.932 -3159801.088 14202868.444 10 0 60493 36900.00000 0 -22444509.124 -3697398.759 11522460.965 10 0 60493 37800.00000 0 -23654969.843 -4001047.861 8617988.258 10 0 60493 38700.00000 0 -24533093.974 -4106660.282 5545786.395 10 0 60493 39600.00000 0 -25042042.832 -4058672.383 2365561.756 10 0 60493 40500.00000 0 -25156860.745 -3907921.107 -860772.301 10 0 60493 41400.00000 0 -24865564.813 -3709243.940 -4070310.575 10 0 60493 42300.00000 0 -24169707.069 -3518905.263 -7200398.184 10 0 60493 43200.00000 0 -23084382.605 -3391959.925 -10189873.791 10 0 60493 44100.00000 0 -21637681.161 -3379668.208 -12980287.452 10 0 60493 45000.00000 0 -19869603.893 -3527074.689 -15517066.818 10 0 60493 45900.00000 0 -17830490.393 -3870856.733 -17750606.506 10 0 60493 46800.00000 0 -15579022.625 -4437536.688 -19637257.190 10 0 60493 47700.00000 0 -13179890.759 -5242136.063 -21140193.252 10 0 60493 48600.00000 0 -10701220.565 -6287330.533 -22230140.795 10 0 60493 49500.00000 0 -8211872.106 -7563142.688 -22885951.162 10 0 60493 50400.00000 0 -5778724.609 -9047185.968 -23095008.673 10 0 60493 51300.00000 0 -3464062.526 -10705449.212 -22853465.170 10 0 60493 52200.00000 0 -1323172.803 -12493587.937 -22166297.827 10 0 60493 53100.00000 0 597746.308 -14358666.746 -21047190.474 10 0 60493 54000.00000 0 2263278.564 -16241278.153 -19518242.436 10 0 60493 54900.00000 0 3650016.313 -18077947.450 -17609512.353 10 0 60493 55800.00000 0 4747271.787 -19803721.403 -15358407.732 10 0 60493 56700.00000 0 5557246.686 -21354831.450 -12808933.880 10 0 60493 57600.00000 0 6094656.663 -22671319.422 -10010818.417 10 0 60493 58500.00000 0 6385830.202 -23699516.058 -7018529.825 10 0 60493 59400.00000 0 6467323.301 -24394269.357 -3890210.139 10 0 60493 60300.00000 0 6384111.236 -24720830.878 -686543.195 10 0 60493 61200.00000 0 6187435.835 -24656322.821 2530419.266 10 0 60493 62100.00000 0 5932400.404 -24190726.520 5698451.056 10 0 60493 63000.00000 0 5675414.228 -23327353.070 8756342.073 10 0 60493 63900.00000 0 5471594.074 -22082778.221 11645063.887 10 0 60493 64800.00000 0 5372231.198 -20486245.619 14308889.318 10 0 60493 65700.00000 0 5422429.067 -18578564.037 16696446.187 10 0 60493 66600.00000 0 5659009.553 -16410544.541 18761686.866 10 0 60493 67500.00000 0 6108774.015 -14041041.836 20464757.000 10 0 60493 68400.00000 0 6787191.131 -11534679.643 21772748.636 10 0 60493 69300.00000 0 7697565.964 -8959352.449 22660324.911 10 0 60493 70200.00000 0 8830725.311 -6383604.659 23110205.535 10 0 60493 71100.00000 0 10165233.699 -3873993.081 23113504.405 10 0 60493 72000.00000 0 11668132.963 -1492539.475 22669912.823 10 0 60493 72900.00000 0 13296177.232 705623.532 21787724.112 10 0 60493 73800.00000 0 14997514.907 2674317.183 20483697.744 10 0 60493 74700.00000 0 16713750.689 4378007.202 18782763.636 10 0 60493 75600.00000 0 18382304.620 5793050.154 16717569.901 10 0 60493 76500.00000 0 19938972.117 6908443.098 14327880.154 10 0 60493 77400.00000 0 21320579.613 7726044.075 11659829.387 10 0 60493 78300.00000 0 22467625.346 8260252.689 8765050.462 10 0 60493 79200.00000 0 23326794.188 8537162.571 5699686.204 10 0 60493 80100.00000 0 23853239.522 8593219.917 2523305.059 10 0 60493 81000.00000 0 24012533.931 8473443.633 -702259.097 10 0 60493 81900.00000 0 23782203.778 8229281.957 -3914120.157 10 0 60493 82800.00000 0 23152779.852 7916196.655 -7049581.237 10 0 60493 83700.00000 0 22128316.652 7591078.354 -10047378.449 10 0 60493 84600.00000 0 20726355.826 7309604.571 -12848900.619 10 0 60493 85500.00000 0 18977333.098 7123654.965 -15399358.616 10 0 60494 0.00000 0 16923452.706 7078896.264 -17648878.862 10 0 60494 900.00000 0 14617075.251 7212642.092 -19553498.634 10 0 60494 1800.00000 0 12118690.030 7552080.970 -21076038.902 10 0 60494 2700.00000 0 9494554.520 8112949.436 -22186840.403 10 0 60494 3600.00000 0 6814104.137 8898707.897 -22864344.779 10 0 60494 4500.00000 0 4147241.444 9900254.600 -23095510.602 10 0 60494 5400.00000 0 1561619.834 11096189.612 -22876056.503 10 0 60494 6300.00000 0 -879963.812 12453616.929 -22210527.617 10 0 60494 7200.00000 0 -3121958.234 13929449.530 -21112185.491 10 0 60494 8100.00000 0 -5118129.497 15472160.869 -19602725.225 10 0 60494 9000.00000 0 -6833230.232 17023907.384 -17711827.205 10 0 60494 9900.00000 0 -8244198.946 18522931.223 -15476553.975 10 0 60494 10800.00000 0 -9340842.315 19906140.958 -12940605.788 10 0 60494 11700.00000 0 -10125975.427 21111761.135 -10153450.907 10 0 60494 12600.00000 0 -10615017.836 22081939.152 -7169348.973 10 0 60494 13500.00000 0 -10835066.131 22765200.466 -4046287.488 10 0 60494 14400.00000 0 -10823485.303 23118650.047 -844852.759 10 0 60494 15300.00000 0 -10626080.934 23109829.180 2372942.445 10 0 60494 16200.00000 0 -10294931.130 22718151.496 5544851.930 10 0 60494 17100.00000 0 -9885970.574 21935859.944 8609587.318 10 0 60494 18000.00000 0 -9456428.665 20768466.368 11507985.413 10 0 60494 18900.00000 0 -9062229.020 19234656.687 14184130.596 10 0 60494 19800.00000 0 -8755458.518 17365666.492 16586412.325 10 0 60494 20700.00000 0 -8582010.729 15204153.201 18668499.296 10 0 60494 21600.00000 0 -8579500.949 12802611.148 20390213.538 10 0 60494 22500.00000 0 -8775538.805 10221394.040 21718289.588 10 0 60494 23400.00000 0 -9186429.752 7526424.863 22627005.772 10 0 60494 24300.00000 0 -9816359.403 4786685.616 23098676.761 10 0 60494 25200.00000 0 -10657095.262 2071588.031 23123998.588 10 0 60494 26100.00000 0 -11688219.572 -551668.650 22702239.544 10 0 60494 27000.00000 0 -12877885.605 -3020646.007 21841272.596 10 0 60494 27900.00000 0 -14184068.489 -5280017.417 20557447.352 10 0 60494 28800.00000 0 -15556261.264 -7283625.515 18875302.105 10 0 60494 29700.00000 0 -16937548.311 -8996161.358 16827119.113 10 0 60494 30600.00000 0 -18266972.113 -10394395.240 14452329.073 10 0 60494 31500.00000 0 -19482096.265 -11467906.961 11796773.669 10 0 60494 32400.00000 0 -20521658.476 -12219283.669 8911838.091 10 0 60494 33300.00000 0 -21328202.298 -12663775.309 5853468.352 10 0 60494 34200.00000 0 -21850576.042 -12828420.538 2681091.231 10 0 60494 35100.00000 0 -22046191.766 -12750678.560 -543542.714 10 0 60494 36000.00000 0 -21882946.509 -12476623.810 -3757570.302 10 0 60494 36900.00000 0 -21340721.493 -12058779.718 -6898256.360 10 0 60494 37800.00000 0 -20412392.944 -11553684.016 -9904238.027 10 0 60494 38700.00000 0 -19104308.605 -11019290.174 -12716746.259 10 0 60494 39600.00000 0 -17436207.158 -10512317.173 -15280778.187 10 0 60494 40500.00000 0 -15440582.230 -10085662.627 -17546195.075 10 0 60494 41400.00000 0 -13161516.583 -9785991.501 -19468722.175 10 0 60494 42300.00000 0 -10653035.445 -9651605.167 -21010829.084 10 0 60494 43200.00000 0 -7977048.746 -9710683.107 -22142472.124 10 0 60494 44100.00000 0 -5200969.655 -9979973.137 -22841683.494 10 0 60494 45000.00000 0 -2395110.650 -10463986.252 -23094995.612 10 0 60494 45900.00000 0 370032.473 -11154730.061 -22897692.835 10 0 60494 46800.00000 0 3026494.003 -12031991.286 -22253886.655 10 0 60494 47700.00000 0 5511435.138 -13064154.009 -21176414.251 10 0 60494 48600.00000 0 7769515.936 -14209517.418 -19686564.048 10 0 60494 49500.00000 0 9754944.338 -15418055.544 -17813635.420 10 0 60494 50400.00000 0 11433118.447 -16633542.959 -15594342.950 10 0 60494 51300.00000 0 12781796.037 -17795955.240 -13072078.665 10 0 60494 52200.00000 0 13791745.597 -18844041.958 -10296048.140 10 0 60494 53100.00000 0 14466855.198 -19717963.174 -7320298.759 10 0 60494 54000.00000 0 14823698.354 -20361878.488 -4202660.038 10 0 60494 54900.00000 0 14890578.614 -20726380.275 -1003617.335 10 0 60494 55800.00000 0 14706096.141 -20770669.889 2214858.849 10 0 60494 56700.00000 0 14317298.925 -20464386.873 5390505.414 10 0 60494 57600.00000 0 13777498.040 -19789016.070 8461958.515 10 0 60494 58500.00000 0 13143839.539 -18738815.266 11369922.655 10 0 60494 59400.00000 0 12474734.953 -17321225.937 14058295.826 10 0 60494 60300.00000 0 11827257.520 -15556750.827 16475230.730 10 0 60494 61200.00000 0 11254612.021 -13478303.796 18574113.531 10 0 60494 62100.00000 0 10803782.667 -11130058.565 20314443.325 10 0 60494 63000.00000 0 10513455.814 -8565843.007 21662597.358 10 0 60494 63900.00000 0 10412303.005 -5847143.777 22592468.934 10 0 60494 64800.00000 0 10517695.140 -3040801.467 23085967.055 10 0 60494 65700.00000 0 10834901.245 -216488.895 23133368.899 10 0 60494 66600.00000 0 11356805.822 2555926.070 22733518.425 10 0 60494 67500.00000 0 12064157.927 5209026.855 21893866.646 10 0 60494 68400.00000 0 12926343.595 7680396.596 20630351.489 10 0 60494 69300.00000 0 13902651.881 9914964.781 18967117.623 10 0 60494 70200.00000 0 14943984.340 11867055.831 16936079.312 10 0 60494 71100.00000 0 15994939.053 13502054.659 14576332.076 10 0 60494 72000.00000 0 16996184.090 14797619.251 11933421.947 10 0 60494 72900.00000 0 17887022.360 15744388.416 9058484.014 10 0 60494 73800.00000 0 18608040.622 16346153.449 6007264.980 10 0 60494 74700.00000 0 19103730.781 16619484.688 2839047.425 10 0 60494 75600.00000 0 19324971.546 16592827.030 -384503.936 10 0 60494 76500.00000 0 19231263.414 16305101.286 -3600551.302 10 0 60494 77400.00000 0 18792619.666 15803869.851 -6746323.572 10 0 60494 78300.00000 0 17991030.168 15143144.429 -9760361.067 10 0 60494 79200.00000 0 16821432.767 14380929.552 -12583738.741 10 0 60494 80100.00000 0 15292148.278 13576607.619 -15161241.608 10 0 60494 81000.00000 0 13424758.133 12788278.394 -17442466.915 10 0 60494 81900.00000 0 11253428.178 12070168.158 -19382829.352 10 0 60494 82800.00000 0 8823706.373 11470220.735 -20944447.770 10 0 60494 83700.00000 0 6190844.790 11027974.438 -22096894.725 10 0 60494 84600.00000 0 3417717.047 10772816.333 -22817793.472 10 0 60494 85500.00000 0 572419.662 10722688.503 -23093250.605 10 0 60495 0.00000 0 -2274340.773 10883300.971 -22918116.401 10 0 60495 900.00000 0 -5051965.568 11247883.909 -22296068.594 10 0 60495 1800.00000 0 -7692668.840 11797487.925 -21239519.627 10 0 60495 2700.00000 0 -10134061.159 12501818.084 -19769350.564 10 0 60495 3600.00000 0 -12321500.735 13320564.096 -17914478.745 10 0 60495 4500.00000 0 -14210116.739 14205168.350 -15711269.459 10 0 60495 5400.00000 0 -15766422.031 15100955.106 -13202804.870 10 0 60495 6300.00000 0 -16969450.629 15949529.360 -10438026.015 10 0 60495 7200.00000 0 -17811375.571 16691343.031 -7470765.967 10 0 60495 8100.00000 0 -18297584.806 17268319.745 -4358694.068 10 0 60495 9000.00000 0 -18446215.462 17626427.652 -1162192.424 10 0 60495 9900.00000 0 -18287169.306 17718092.604 2056813.134 10 0 60495 10800.00000 0 -17860653.452 17504351.237 5236045.075 10 0 60495 11700.00000 0 -17215309.656 16956654.899 8314066.646 10 0 60495 12600.00000 0 -16406011.979 16058250.189 11231452.648 10 0 60495 13500.00000 0 -15491425.615 14805079.626 13931917.306 10 0 60495 14400.00000 0 -14531428.861 13206165.783 16363379.162 10 0 60495 15300.00000 0 -13584505.151 11283463.296 18478944.353 10 0 60495 16200.00000 0 -12705212.787 9071184.735 20237791.399 10 0 60495 17100.00000 0 -11941836.381 6614627.370 21605942.393 10 0 60495 18000.00000 0 -11334316.414 3968547.869 22556907.473 10 0 60495 18900.00000 0 -10912541.918 1195149.953 23072191.490 10 0 60495 19800.00000 0 -10695076.643 -1638234.494 23141653.891 10 0 60495 20700.00000 0 -10688371.670 -4461677.913 22763714.986 10 0 60495 21600.00000 0 -10886497.913 -7205301.456 21945404.040 10 0 60495 22500.00000 0 -11271411.020 -9801924.536 20702246.995 10 0 60495 23400.00000 0 -11813739.572 -12189611.991 19057994.068 10 0 60495 24300.00000 0 -12474066.000 -14314014.652 17044190.177 10 0 60495 25200.00000 0 -13204649.070 -16130406.742 14699593.827 10 0 60495 26100.00000 0 -13951518.009 -17605334.959 12069453.095 10 0 60495 27000.00000 0 -14656852.100 -18717809.491 9204650.276 10 0 60495 27900.00000 0 -15261546.684 -19459985.518 6160729.761 10 0 60495 28800.00000 0 -15707857.517 -19837304.732 2996826.678 10 0 60495 29700.00000 0 -15942011.030 -19868088.975 -225483.522 10 0 60495 30600.00000 0 -15916668.311 -19582601.418 -3443391.944 10 0 60495 31500.00000 0 -15593136.034 -19021613.814 -6594095.124 10 0 60495 32400.00000 0 -14943227.658 -18234539.912 -9616040.115 10 0 60495 33300.00000 0 -13950692.723 -17277214.343 -12450149.380 10 0 60495 34200.00000 0 -12612150.563 -16209412.125 -15040999.130 10 0 60495 35100.00000 0 -10937486.022 -15092215.519 -17337925.643 10 0 60495 36000.00000 0 -8949688.315 -13985341.965 -19296035.734 10 0 60495 36900.00000 0 -6684138.341 -12944548.440 -20877099.706 10 0 60495 37800.00000 0 -4187373.886 -12019224.185 -22050307.977 10 0 60495 38700.00000 0 -1515384.749 -11250275.212 -22792875.866 10 0 60495 39600.00000 0 1268489.975 -10668390.977 -23090484.512 10 0 60495 40500.00000 0 4095973.203 -10292766.604 -22937549.785 10 0 60495 41400.00000 0 6896467.660 -10130333.974 -22337314.906 10 0 60495 42300.00000 0 9599769.644 -10175532.710 -21301766.284 10 0 60495 43200.00000 0 12138764.758 -10410628.677 -19851375.883 10 0 60495 44100.00000 0 14451993.016 -10806564.109 -18014676.887 10 0 60495 45000.00000 0 16485976.852 -11324300.844 -15827682.814 10 0 60495 45900.00000 0 18197216.263 -11916597.447 -13333163.164 10 0 60495 46800.00000 0 19553769.911 -12530142.935 -10579791.294 10 0 60495 47700.00000 0 20536358.794 -13107955.306 -7621182.553 10 0 60495 48600.00000 0 21138949.518 -13591942.472 -4514842.464 10 0 60495 49500.00000 0 21368796.090 -13925517.095 -1321046.094 10 0 60495 50400.00000 0 21245941.730 -14056155.192 1898329.211 10 0 60495 51300.00000 0 20802204.514 -13937791.478 5080995.205 10 0 60495 52200.00000 0 20079691.723 -13532951.715 8165445.699 10 0 60495 53100.00000 0 19128906.793 -12814533.840 11092128.929 10 0 60495 54000.00000 0 18006529.017 -11767164.452 13804578.045 10 0 60495 54900.00000 0 16772958.918 -10388074.923 16250479.617 10 0 60495 55800.00000 0 15489731.234 -8687461.184 18382661.427 10 0 60495 56700.00000 0 14216902.257 -6688312.192 20159982.551 10 0 60495 57600.00000 0 13010518.854 -4425713.502 21548110.549 10 0 60495 58500.00000 0 11920272.854 -1945653.459 22520172.518 10 0 60495 59400.00000 0 10987436.816 696620.625 23057268.816 10 0 60495 60300.00000 0 10243165.765 3438630.927 23148840.382 10 0 60495 61200.00000 0 9707234.859 6213001.272 22792882.698 10 0 60495 62100.00000 0 9387265.468 8949999.635 21996001.746 10 0 60495 63000.00000 0 9278472.562 11580188.770 20773309.624 10 0 60495 63900.00000 0 9363945.306 14037077.655 19148159.974 10 0 60495 64800.00000 0 9615450.988 16259665.661 17151726.020 10 0 60495 65700.00000 0 9994730.838 18194774.822 14822426.716 10 0 60495 66600.00000 0 10455235.554 19799073.180 12205209.510 10 0 60495 67500.00000 0 10944229.575 21040704.105 9350701.113 10 0 60495 68400.00000 0 11405176.836 21900451.998 6314240.731 10 0 60495 69300.00000 0 11780307.977 22372393.552 3154813.128 10 0 60495 70200.00000 0 12013260.156 22464005.022 -66098.388 10 0 60495 71100.00000 0 12051676.535 22195719.010 -3285716.627 10 0 60495 72000.00000 0 11849653.195 21599947.770 -6441208.394 10 0 60495 72900.00000 0 11369926.957 20719613.199 -9470929.859 10 0 60495 73800.00000 0 10585708.227 19606245.490 -12315653.066 10 0 60495 74700.00000 0 9482077.848 18317731.292 -14919747.159 10 0 60495 75600.00000 0 8056885.697 16915807.887 -17232288.839 10 0 60495 76500.00000 0 6321110.454 15463411.277 -19208078.105 10 0 60495 77400.00000 0 4298663.390 14021992.344 -20808537.488 10 0 60495 78300.00000 0 2025643.342 12648916.599 -22002475.818 10 0 60495 79200.00000 0 -450926.174 11395059.040 -22766700.798 10 0 60495 80100.00000 0 -3074824.273 10302696.841 -23086468.212 10 0 60495 81000.00000 0 -5782751.135 9403789.160 -22955759.440 10 0 60495 81900.00000 0 -8506747.684 8718716.160 -22377382.771 10 0 60495 82800.00000 0 -11176814.074 8255529.111 -21362897.889 10 0 60495 83700.00000 0 -13723616.612 8009741.144 -19932366.640 10 0 60495 84600.00000 0 -16081169.540 7964664.885 -18113936.729 10 0 60495 85500.00000 0 -18189379.756 8092279.800 -15943268.290 99